Showing default

LEMUR 1, 40044

Orbit data source: Space-Track

LEMUR 1, 40044 is a payload satellite owned by NanoSatisfi (US) in SSO that was launched on Thu, 19 Jun 2014 UTC via a DNEPR launch vehicle from the Orenburg, Russia (OREN). Payload-class satellites include a variety of spacecraft equipped with specific instruments for various scientific and technological missions. These include communications satellites like Starlink; space stations such as the ISS; scientific satellites like the Hubble; Earth observation satellites from companies like Planet Labs, Umbra, and HawkEye 360; GPS; miniature CubeSats for education and research; and military/defense satellites.

Loading next visibility...
Identifier
40044, 2014-033AL
Orbit
SSO
Last TLE update
14 hours ago
Origin
Manufacturer
NanoSatisfi
Mission
Operational Commercial Technology
Bus & Motor
CUBESAT 3U, Unknown motor
Mass
~4 kg wet, ~4 kg dry
Launch date (UTC)
2014-06-19 (11 years ago)
Launch vehicle
DNEPR
Launch site
Orenburg, Russia (OREN)
Object type
Payload
Rocket body
Debris
Shape & HBR
Box, 0.5 m
Radar Cross Section
0.093 m², Small (<0.1 m²)

Expand to show TLE details & history

TLE from 14 hours ago
0 LEMUR 1
1 40044U 14033AL  25186.36529276  .00002301  00000-0  28252-3 0  9993
2 40044  97.7425 340.3943 0051551 134.0975 226.4499 14.83080308594021
Epoch: 2025-07-05T08:46Z
TLE epoch observation values (Epoch: 2025-07-05T08:46:01.294Z)
Latitude
-0.00003°
Longitude
-74.71547°
Altitude
647.606 km
Speed
7.521 km/s
True Right ascension
22h 41m 34s
True Declination
0° 00' 00"
Sunlit
Object was in full shadow at epoch
Visualization orbit readout
Latitude
-78.50454°
Longitude
-32.4643°
Altitude
677.506 km
Speed
7.501 km/s
Apparent Right ascension
23h 28m 11s
Apparent Declination
-61° 04' 09"
Sunlit
Object is in daylight
Visualization observer readout
Local Sidereal Time
10:54:29
Azimuth
191.013° SSW
Elevation
-68.22°
Doppler factor
1
Orbital elements
Apogee altitude
652.706 km
Perigee altitude
580.589 km
Semi-major axis
6,994.785 km
Eccentricity
0.00516
Inclination
97.7425°
RAAN
340.3943°
Arg. of periapsis
134.0975°
True anomaly
Unknown
Mean anomaly
226.4499°
Eccentric anomaly
Unknown
Mean motion
3.71007 °/min
Orbital period
97.03 mins
BSTAR
0.00028252
Loading maneuver chart data...
Loading SW <> Apogee altitude chart data...
Loading historical data...
Loading historical data...
Loading historical data...
Loading historical data...
Loading historical data...
Loading historical data...
Loading historical data...

LEMUR 1 Visibility forecast

Observer location: undefined°, undefined°

Span
Click to sort rows by Start time (UTC) header in descending order
Start Az.
Max El. time (UTC)
Max El. Az.
Max El.
End time (UTC)
End Az.
6 mins2025-07-05 23:54:13.097Z345.185° N2025-07-05 23:57:13.097Z292.131° WNW24.825°2025-07-06 00:00:13.097Z236.27° WSW
6 mins2025-07-06 10:48:13.097Z198.481° SSW2025-07-06 10:51:13.097Z265.637° W32.97°2025-07-06 10:54:13.097Z326.593° NNW
5 mins2025-07-06 22:36:13.097Z45.961° ENE2025-07-06 22:38:13.097Z91.396° ESE28.79°2025-07-06 22:41:13.097Z155.898° SSE
|